CXCRS SURV-SUMU

Flight info

Callsign CXCRS
Flight time 1h 17m
Altitude 6000
Route TEMAL W15 REGOV
Aircraft BE58/L-SDFGRY/C

Departure

Time 2026-04-25 22:33
Airport Pres. Gral. Óscar D. Gestido Binational Airport (SURV)

Arrival

Time 2026-04-25 23:50
Airport Carrasco General Cesáreo L. Berisso International Airport (SUMU)
Time Latitude Longitude Altitude Speed Heading
2026-04-25 22:31 -30.96943 -55.47376 638 ft 0 kts 40°
2026-04-25 22:32 -30.96938 -55.47371 638 ft 6 kts 39°
2026-04-25 22:32 -30.96973 -55.47199 631 ft 27 kts 137°
2026-04-25 22:32 -30.97145 -55.47283 629 ft 69 kts 221°
2026-04-25 22:32 -30.97684 -55.47843 735 ft 127 kts 221°
2026-04-25 22:33 -30.98434 -55.48475 1198 ft 135 kts 206°
2026-04-25 22:33 -30.99325 -55.48887 1668 ft 140 kts 199°
2026-04-25 22:33 -31.00220 -55.49370 2166 ft 143 kts 206°
2026-04-25 22:33 -31.01089 -55.49883 2612 ft 139 kts 205°
2026-04-25 22:34 -31.01949 -55.50377 3021 ft 136 kts 205°
2026-04-25 22:34 -31.02782 -55.50853 3426 ft 134 kts 205°
2026-04-25 22:34 -31.03612 -55.51327 3828 ft 131 kts 205°
2026-04-25 22:34 -31.04427 -55.51791 4239 ft 130 kts 205°
2026-04-25 22:35 -31.05247 -55.52259 4669 ft 132 kts 206°
2026-04-25 22:35 -31.06073 -55.52730 5085 ft 132 kts 206°
2026-04-25 22:35 -31.06898 -55.53201 5496 ft 132 kts 207°
2026-04-25 22:35 -31.07719 -55.53669 5902 ft 133 kts 207°
2026-04-25 22:36 -31.08623 -55.54188 5956 ft 155 kts 207°
2026-04-25 22:36 -31.09634 -55.54765 5957 ft 168 kts 207°
2026-04-25 22:36 -31.10696 -55.55371 5959 ft 176 kts 207°
2026-04-25 22:36 -31.11811 -55.56008 5962 ft 181 kts 207°
2026-04-25 22:37 -31.12953 -55.56660 5958 ft 184 kts 207°
2026-04-25 22:37 -31.14110 -55.57321 5961 ft 186 kts 207°
2026-04-25 22:37 -31.15277 -55.57988 5964 ft 188 kts 207°
2026-04-25 22:37 -31.16452 -55.58660 5965 ft 188 kts 207°
2026-04-25 22:38 -31.17631 -55.59334 5964 ft 189 kts 207°
2026-04-25 22:38 -31.18812 -55.60010 5967 ft 190 kts 207°
2026-04-25 22:38 -31.19999 -55.60690 5968 ft 190 kts 207°
2026-04-25 22:38 -31.21191 -55.61371 5969 ft 191 kts 207°
2026-04-25 22:39 -31.22364 -55.62043 5970 ft 190 kts 207°
2026-04-25 22:39 -31.23554 -55.62725 5974 ft 191 kts 207°
2026-04-25 22:39 -31.24747 -55.63408 5977 ft 191 kts 207°
2026-04-25 22:39 -31.25940 -55.64092 5981 ft 191 kts 207°
2026-04-25 22:40 -31.27137 -55.64777 5980 ft 192 kts 207°
2026-04-25 22:40 -31.28333 -55.65463 5984 ft 191 kts 207°
2026-04-25 22:40 -31.29527 -55.66148 5984 ft 191 kts 207°
2026-04-25 22:40 -31.30721 -55.66834 5983 ft 191 kts 207°
2026-04-25 22:41 -31.31899 -55.67509 5984 ft 191 kts 207°
2026-04-25 22:41 -31.33094 -55.68194 5983 ft 191 kts 207°
2026-04-25 22:41 -31.34286 -55.68879 5984 ft 191 kts 207°
2026-04-25 22:41 -31.35478 -55.69564 5983 ft 191 kts 207°
2026-04-25 22:42 -31.36671 -55.70249 5983 ft 191 kts 207°
2026-04-25 22:42 -31.37863 -55.70935 5986 ft 191 kts 207°
2026-04-25 22:42 -31.39056 -55.71620 5982 ft 191 kts 207°
2026-04-25 22:42 -31.40234 -55.72297 5982 ft 191 kts 207°
2026-04-25 22:43 -31.41427 -55.72984 5984 ft 191 kts 207°
2026-04-25 22:43 -31.42619 -55.73669 5983 ft 191 kts 207°
2026-04-25 22:43 -31.43814 -55.74356 5979 ft 191 kts 207°
2026-04-25 22:43 -31.45005 -55.75043 5981 ft 191 kts 207°
2026-04-25 22:44 -31.46196 -55.75729 5983 ft 191 kts 207°
2026-04-25 22:44 -31.47388 -55.76415 5981 ft 191 kts 207°
2026-04-25 22:44 -31.48580 -55.77101 5983 ft 191 kts 207°
2026-04-25 22:44 -31.49772 -55.77788 5981 ft 191 kts 207°
2026-04-25 22:45 -31.50965 -55.78476 5980 ft 191 kts 207°
2026-04-25 22:45 -31.52158 -55.79164 5981 ft 191 kts 207°
2026-04-25 22:45 -31.53351 -55.79852 5979 ft 191 kts 207°
2026-04-25 22:45 -31.54526 -55.80530 5978 ft 191 kts 207°
2026-04-25 22:46 -31.55718 -55.81218 5977 ft 191 kts 207°
2026-04-25 22:46 -31.56912 -55.81907 5978 ft 191 kts 207°
2026-04-25 22:46 -31.58106 -55.82597 5979 ft 191 kts 207°
2026-04-25 22:46 -31.59301 -55.83287 5978 ft 191 kts 207°
2026-04-25 22:47 -31.60495 -55.83977 5978 ft 191 kts 207°
2026-04-25 22:47 -31.61688 -55.84666 5976 ft 191 kts 207°
2026-04-25 22:47 -31.62881 -55.85356 5978 ft 191 kts 207°
2026-04-25 22:47 -31.64057 -55.86036 5975 ft 191 kts 207°
2026-04-25 22:48 -31.65250 -55.86726 5976 ft 191 kts 207°
2026-04-25 22:48 -31.66445 -55.87417 5978 ft 191 kts 207°
2026-04-25 22:48 -31.67639 -55.88109 5975 ft 191 kts 207°
2026-04-25 22:48 -31.68834 -55.88800 5974 ft 191 kts 207°
2026-04-25 22:49 -31.70028 -55.89492 5975 ft 192 kts 207°
2026-04-25 22:49 -31.71224 -55.90184 5974 ft 192 kts 207°
2026-04-25 22:49 -31.72419 -55.90877 5973 ft 192 kts 207°
2026-04-25 22:49 -31.73628 -55.91531 5970 ft 192 kts 197°
2026-04-25 22:50 -31.74939 -55.91631 5972 ft 193 kts 178°
2026-04-25 22:50 -31.76279 -55.91563 5972 ft 193 kts 179°
2026-04-25 22:50 -31.77619 -55.91572 5973 ft 193 kts 182°
2026-04-25 22:50 -31.78957 -55.91624 5970 ft 193 kts 183°
2026-04-25 22:51 -31.80299 -55.91676 5970 ft 193 kts 182°
2026-04-25 22:51 -31.81639 -55.91724 5975 ft 193 kts 182°
2026-04-25 22:51 -31.82979 -55.91770 5973 ft 193 kts 182°
2026-04-25 22:51 -31.84322 -55.91817 5973 ft 193 kts 182°
2026-04-25 22:52 -31.85667 -55.91864 5975 ft 193 kts 182°
2026-04-25 22:52 -31.86992 -55.91911 5975 ft 193 kts 182°
2026-04-25 22:52 -31.88338 -55.91958 5972 ft 193 kts 182°
2026-04-25 22:52 -31.89229 -55.91990 5975 ft 193 kts 182°
2026-04-25 22:53 -31.91029 -55.92053 5973 ft 194 kts 182°
2026-04-25 22:53 -31.92376 -55.92100 5975 ft 194 kts 182°
2026-04-25 22:53 -31.93723 -55.92148 5974 ft 194 kts 182°
2026-04-25 22:53 -31.95071 -55.92195 5972 ft 194 kts 182°
2026-04-25 22:54 -31.96417 -55.92243 5969 ft 194 kts 182°
2026-04-25 22:54 -31.97746 -55.92289 5968 ft 194 kts 182°
2026-04-25 22:54 -31.99093 -55.92337 5970 ft 194 kts 182°
2026-04-25 22:54 -32.00441 -55.92384 5969 ft 194 kts 182°
2026-04-25 22:55 -32.01789 -55.92432 5965 ft 194 kts 182°
2026-04-25 22:55 -32.03136 -55.92479 5971 ft 194 kts 182°
2026-04-25 22:55 -32.04485 -55.92527 5967 ft 194 kts 182°
2026-04-25 22:55 -32.05835 -55.92575 5967 ft 194 kts 182°
2026-04-25 22:56 -32.07187 -55.92622 5972 ft 194 kts 182°
2026-04-25 22:56 -32.08540 -55.92670 5967 ft 194 kts 182°
2026-04-25 22:56 -32.09873 -55.92717 5969 ft 195 kts 182°
2026-04-25 22:56 -32.11229 -55.92765 5972 ft 195 kts 182°
2026-04-25 22:57 -32.12584 -55.92813 5970 ft 195 kts 182°
2026-04-25 22:57 -32.13942 -55.92861 5970 ft 195 kts 182°
2026-04-25 22:57 -32.15297 -55.92909 5967 ft 195 kts 182°
2026-04-25 22:57 -32.16655 -55.92957 5965 ft 195 kts 182°
2026-04-25 22:58 -32.18009 -55.93005 5970 ft 195 kts 182°
2026-04-25 22:58 -32.19347 -55.93052 5967 ft 195 kts 182°
2026-04-25 22:58 -32.20706 -55.93100 5965 ft 195 kts 182°
2026-04-25 22:58 -32.22062 -55.93148 5964 ft 195 kts 182°
2026-04-25 22:59 -32.23421 -55.93196 5970 ft 195 kts 182°
2026-04-25 22:59 -32.24779 -55.93244 5968 ft 195 kts 182°
2026-04-25 22:59 -32.26138 -55.93292 5969 ft 195 kts 182°
2026-04-25 22:59 -32.27497 -55.93341 5968 ft 196 kts 183°
2026-04-25 23:00 -32.28859 -55.93389 5966 ft 196 kts 183°
2026-04-25 23:00 -32.30221 -55.93438 5969 ft 196 kts 183°
2026-04-25 23:00 -32.31585 -55.93486 5966 ft 196 kts 182°
2026-04-25 23:00 -32.32929 -55.93533 5964 ft 196 kts 182°
2026-04-25 23:01 -32.34293 -55.93582 5969 ft 196 kts 182°
2026-04-25 23:01 -32.35656 -55.93631 5965 ft 196 kts 182°
2026-04-25 23:01 -32.37019 -55.93678 5959 ft 196 kts 183°
2026-04-25 23:01 -32.38383 -55.93727 5959 ft 196 kts 183°
2026-04-25 23:02 -32.39747 -55.93775 5961 ft 196 kts 182°
2026-04-25 23:02 -32.41110 -55.93824 5962 ft 196 kts 182°
2026-04-25 23:02 -32.42471 -55.93872 5963 ft 196 kts 182°
2026-04-25 23:02 -32.43831 -55.93920 5962 ft 196 kts 182°
2026-04-25 23:03 -32.45196 -55.93970 5962 ft 196 kts 182°
2026-04-25 23:03 -32.46540 -55.94017 5961 ft 196 kts 183°
2026-04-25 23:03 -32.47904 -55.94066 5967 ft 196 kts 182°
2026-04-25 23:03 -32.49267 -55.94114 5969 ft 196 kts 182°
2026-04-25 23:04 -32.50630 -55.94163 5966 ft 196 kts 182°
2026-04-25 23:04 -32.51531 -55.94195 5967 ft 196 kts 182°
2026-04-25 23:04 -32.53353 -55.94260 5975 ft 196 kts 182°
2026-04-25 23:04 -32.54717 -55.94309 5968 ft 196 kts 182°
2026-04-25 23:05 -32.56078 -55.94357 5972 ft 196 kts 182°
2026-04-25 23:05 -32.57421 -55.94405 5972 ft 196 kts 182°
2026-04-25 23:05 -32.58780 -55.94454 5973 ft 195 kts 182°
2026-04-25 23:05 -32.60139 -55.94502 5971 ft 195 kts 182°
2026-04-25 23:06 -32.61499 -55.94550 5974 ft 195 kts 182°
2026-04-25 23:06 -32.62857 -55.94600 5972 ft 195 kts 182°
2026-04-25 23:06 -32.64215 -55.94648 5975 ft 195 kts 182°
2026-04-25 23:06 -32.65574 -55.94696 5969 ft 195 kts 182°
2026-04-25 23:07 -32.66934 -55.94745 5970 ft 195 kts 182°
2026-04-25 23:07 -32.68294 -55.94793 5967 ft 196 kts 182°
2026-04-25 23:07 -32.69637 -55.94841 5974 ft 196 kts 182°
2026-04-25 23:07 -32.71001 -55.94891 5969 ft 196 kts 182°
2026-04-25 23:08 -32.72364 -55.94939 5971 ft 196 kts 182°
2026-04-25 23:08 -32.73729 -55.94988 5972 ft 196 kts 182°
2026-04-25 23:08 -32.75093 -55.95037 5972 ft 196 kts 182°
2026-04-25 23:08 -32.76458 -55.95086 5972 ft 196 kts 182°
2026-04-25 23:09 -32.77823 -55.95135 5971 ft 196 kts 182°
2026-04-25 23:09 -32.79187 -55.95184 5970 ft 196 kts 182°
2026-04-25 23:09 -32.80552 -55.95233 5969 ft 196 kts 182°
2026-04-25 23:09 -32.81898 -55.95281 5971 ft 196 kts 182°
2026-04-25 23:10 -32.83261 -55.95330 5970 ft 196 kts 182°
2026-04-25 23:10 -32.84624 -55.95379 5970 ft 196 kts 182°
2026-04-25 23:10 -32.85989 -55.95428 5973 ft 196 kts 182°
2026-04-25 23:10 -32.87353 -55.95477 5970 ft 196 kts 182°
2026-04-25 23:11 -32.88717 -55.95526 5968 ft 196 kts 182°
2026-04-25 23:11 -32.90084 -55.95575 5969 ft 196 kts 182°
2026-04-25 23:11 -32.91450 -55.95624 5972 ft 196 kts 182°
2026-04-25 23:11 -32.92797 -55.95673 5971 ft 197 kts 182°
2026-04-25 23:12 -32.94164 -55.95722 5972 ft 197 kts 182°
2026-04-25 23:12 -32.95532 -55.95771 5971 ft 197 kts 182°
2026-04-25 23:12 -32.96900 -55.95820 5971 ft 197 kts 182°
2026-04-25 23:12 -32.98268 -55.95870 5972 ft 197 kts 182°
2026-04-25 23:13 -32.99636 -55.95919 5974 ft 197 kts 182°
2026-04-25 23:13 -33.01002 -55.95968 5971 ft 197 kts 182°
2026-04-25 23:13 -33.02372 -55.96017 5970 ft 197 kts 182°
2026-04-25 23:13 -33.03739 -55.96067 5973 ft 197 kts 182°
2026-04-25 23:14 -33.05107 -55.96116 5969 ft 197 kts 182°
2026-04-25 23:14 -33.06458 -55.96165 5970 ft 197 kts 182°
2026-04-25 23:14 -33.07825 -55.96214 5968 ft 197 kts 182°
2026-04-25 23:14 -33.09193 -55.96264 5967 ft 197 kts 182°
2026-04-25 23:15 -33.10565 -55.96313 5971 ft 197 kts 182°
2026-04-25 23:15 -33.11934 -55.96363 5969 ft 197 kts 182°
2026-04-25 23:15 -33.13306 -55.96412 5967 ft 197 kts 182°
2026-04-25 23:15 -33.14677 -55.96462 5968 ft 197 kts 182°
2026-04-25 23:16 -33.16029 -55.96511 5964 ft 197 kts 182°
2026-04-25 23:16 -33.17401 -55.96560 5965 ft 197 kts 182°
2026-04-25 23:16 -33.18775 -55.96609 5961 ft 198 kts 182°
2026-04-25 23:16 -33.20157 -55.96662 5965 ft 199 kts 182°
2026-04-25 23:17 -33.21542 -55.96711 5962 ft 200 kts 182°
2026-04-25 23:17 -33.22933 -55.96758 5958 ft 200 kts 182°
2026-04-25 23:17 -33.24332 -55.96812 5965 ft 202 kts 182°
2026-04-25 23:17 -33.25742 -55.96864 5961 ft 202 kts 182°
2026-04-25 23:18 -33.27145 -55.96918 5968 ft 202 kts 182°
2026-04-25 23:18 -33.28533 -55.96964 5964 ft 203 kts 182°
2026-04-25 23:18 -33.29940 -55.97012 5963 ft 202 kts 182°
2026-04-25 23:18 -33.31347 -55.97065 5960 ft 202 kts 182°
2026-04-25 23:19 -33.32745 -55.97118 5961 ft 201 kts 182°
2026-04-25 23:19 -33.34137 -55.97168 5962 ft 201 kts 182°
2026-04-25 23:19 -33.35538 -55.97218 5959 ft 200 kts 182°
2026-04-25 23:19 -33.36925 -55.97269 5959 ft 199 kts 182°
2026-04-25 23:20 -33.38309 -55.97317 5959 ft 199 kts 182°
2026-04-25 23:20 -33.39702 -55.97369 5961 ft 201 kts 182°
2026-04-25 23:20 -33.41092 -55.97420 5959 ft 199 kts 182°
2026-04-25 23:20 -33.42454 -55.97469 5964 ft 198 kts 182°
2026-04-25 23:21 -33.43836 -55.97518 5960 ft 199 kts 182°
2026-04-25 23:21 -33.45218 -55.97571 5953 ft 199 kts 182°
2026-04-25 23:21 -33.46594 -55.97621 5953 ft 198 kts 182°
2026-04-25 23:21 -33.47967 -55.97670 5957 ft 197 kts 182°
2026-04-25 23:22 -33.49339 -55.97720 5957 ft 197 kts 182°
2026-04-25 23:22 -33.50713 -55.97770 5957 ft 198 kts 182°
2026-04-25 23:22 -33.52090 -55.97821 5962 ft 198 kts 182°
2026-04-25 23:23 -33.54822 -55.97921 5958 ft 198 kts 182°
2026-04-25 23:23 -33.56196 -55.97967 5950 ft 197 kts 182°
2026-04-25 23:23 -33.57562 -55.98019 5957 ft 196 kts 182°
2026-04-25 23:23 -33.58919 -55.98072 5955 ft 195 kts 182°
2026-04-25 23:24 -33.60278 -55.98120 5960 ft 196 kts 182°
2026-04-25 23:24 -33.61638 -55.98168 5950 ft 196 kts 182°
2026-04-25 23:24 -33.63000 -55.98217 5956 ft 196 kts 182°
2026-04-25 23:24 -33.64367 -55.98268 5958 ft 197 kts 182°
2026-04-25 23:25 -33.65737 -55.98320 5953 ft 197 kts 182°
2026-04-25 23:25 -33.67087 -55.98368 5959 ft 197 kts 182°
2026-04-25 23:25 -33.68457 -55.98419 5957 ft 197 kts 182°
2026-04-25 23:25 -33.69822 -55.98469 5958 ft 196 kts 182°
2026-04-25 23:26 -33.71185 -55.98518 5957 ft 196 kts 182°
2026-04-25 23:26 -33.72546 -55.98569 5960 ft 195 kts 182°
2026-04-25 23:26 -33.73903 -55.98617 5953 ft 195 kts 182°
2026-04-25 23:26 -33.75257 -55.98668 5958 ft 195 kts 182°
2026-04-25 23:27 -33.76598 -55.98716 5952 ft 195 kts 182°
2026-04-25 23:27 -33.77956 -55.98766 5952 ft 195 kts 182°
2026-04-25 23:27 -33.79314 -55.98817 5958 ft 196 kts 182°
2026-04-25 23:27 -33.80680 -55.98868 5954 ft 196 kts 182°
2026-04-25 23:28 -33.82042 -55.98916 5950 ft 196 kts 182°
2026-04-25 23:28 -33.83403 -55.98966 5954 ft 196 kts 182°
2026-04-25 23:28 -33.84766 -55.99017 5949 ft 196 kts 182°
2026-04-25 23:28 -33.86128 -55.99066 5952 ft 196 kts 182°
2026-04-25 23:29 -33.87491 -55.99117 5954 ft 196 kts 182°
2026-04-25 23:29 -33.88859 -55.99167 5954 ft 197 kts 182°
2026-04-25 23:29 -33.90201 -55.99217 5955 ft 196 kts 182°
2026-04-25 23:29 -33.91566 -55.99267 5951 ft 196 kts 182°
2026-04-25 23:30 -33.92924 -55.99317 5954 ft 195 kts 182°
2026-04-25 23:30 -33.94283 -55.99366 5952 ft 195 kts 182°
2026-04-25 23:30 -33.95640 -55.99417 5950 ft 195 kts 182°
2026-04-25 23:30 -33.96993 -55.99467 5952 ft 194 kts 182°
2026-04-25 23:31 -33.98349 -55.99515 5947 ft 196 kts 182°
2026-04-25 23:31 -33.99714 -55.99566 5952 ft 197 kts 182°
2026-04-25 23:31 -34.01063 -55.99617 5954 ft 196 kts 182°
2026-04-25 23:31 -34.02403 -55.99667 6118 ft 188 kts 183°
2026-04-25 23:32 -34.03824 -55.99722 5436 ft 217 kts 182°
2026-04-25 23:32 -34.05360 -55.99775 4787 ft 224 kts 182°
2026-04-25 23:32 -34.06934 -55.99832 4126 ft 228 kts 181°
2026-04-25 23:32 -34.08475 -55.99891 3949 ft 212 kts 182°
2026-04-25 23:33 -34.09922 -55.99945 3930 ft 205 kts 181°
2026-04-25 23:33 -34.11328 -55.99997 3932 ft 200 kts 182°
2026-04-25 23:33 -34.12712 -56.00047 3932 ft 197 kts 182°
2026-04-25 23:33 -34.14052 -56.00096 3933 ft 195 kts 181°
2026-04-25 23:34 -34.15406 -56.00146 3961 ft 192 kts 182°
2026-04-25 23:34 -34.16732 -56.00194 3993 ft 191 kts 182°
2026-04-25 23:34 -34.18060 -56.00156 3989 ft 191 kts 172°
2026-04-25 23:34 -34.19366 -55.99863 3989 ft 191 kts 169°
2026-04-25 23:35 -34.20673 -55.99603 3993 ft 190 kts 172°
2026-04-25 23:35 -34.21976 -55.99389 3990 ft 189 kts 172°
2026-04-25 23:35 -34.23277 -55.99177 3994 ft 188 kts 172°
2026-04-25 23:35 -34.24556 -55.98966 3993 ft 188 kts 172°
2026-04-25 23:36 -34.25850 -55.98752 3991 ft 188 kts 172°
2026-04-25 23:36 -34.26727 -55.98606 3992 ft 188 kts 172°
2026-04-25 23:36 -34.28445 -55.98322 3996 ft 188 kts 172°
2026-04-25 23:36 -34.29740 -55.98107 3995 ft 188 kts 172°
2026-04-25 23:37 -34.31037 -55.97892 3994 ft 188 kts 172°
2026-04-25 23:37 -34.32333 -55.97677 3995 ft 188 kts 172°
2026-04-25 23:37 -34.33621 -55.97464 3996 ft 188 kts 172°
2026-04-25 23:37 -34.34915 -55.97249 3997 ft 188 kts 172°
2026-04-25 23:38 -34.36211 -55.97034 3995 ft 188 kts 172°
2026-04-25 23:38 -34.37488 -55.96822 3998 ft 188 kts 172°
2026-04-25 23:38 -34.38781 -55.96607 3999 ft 188 kts 172°
2026-04-25 23:38 -34.40075 -55.96392 3978 ft 189 kts 173°
2026-04-25 23:39 -34.41466 -55.96163 3347 ft 214 kts 172°
2026-04-25 23:39 -34.42981 -55.95911 3006 ft 217 kts 172°
2026-04-25 23:39 -34.44433 -55.95669 3006 ft 205 kts 172°
2026-04-25 23:39 -34.45820 -55.95437 3001 ft 198 kts 172°
2026-04-25 23:40 -34.47165 -55.95213 2995 ft 193 kts 172°
2026-04-25 23:40 -34.48485 -55.94994 2989 ft 190 kts 172°
2026-04-25 23:40 -34.49791 -55.94776 2995 ft 188 kts 172°
2026-04-25 23:40 -34.51065 -55.94564 2997 ft 187 kts 172°
2026-04-25 23:41 -34.52351 -55.94349 2998 ft 186 kts 172°
2026-04-25 23:41 -34.53635 -55.94135 2998 ft 186 kts 173°
2026-04-25 23:41 -34.54918 -55.93922 2998 ft 186 kts 173°
2026-04-25 23:41 -34.56199 -55.93708 2998 ft 186 kts 173°
2026-04-25 23:42 -34.57478 -55.93495 2998 ft 185 kts 173°
2026-04-25 23:42 -34.58735 -55.93284 2998 ft 180 kts 173°
2026-04-25 23:42 -34.59958 -55.93080 2996 ft 175 kts 173°
2026-04-25 23:42 -34.61142 -55.92882 2997 ft 173 kts 173°
2026-04-25 23:43 -34.62329 -55.92683 2996 ft 172 kts 173°
2026-04-25 23:43 -34.63510 -55.92487 2997 ft 171 kts 173°
2026-04-25 23:43 -34.64676 -55.92228 2996 ft 171 kts 161°
2026-04-25 23:43 -34.65682 -55.91476 3002 ft 171 kts 142°
2026-04-25 23:44 -34.66634 -55.90614 3003 ft 171 kts 144°
2026-04-25 23:44 -34.67593 -55.89760 3008 ft 171 kts 143°
2026-04-25 23:44 -34.68550 -55.88904 3007 ft 171 kts 143°
2026-04-25 23:44 -34.69493 -55.88057 3007 ft 171 kts 143°
2026-04-25 23:45 -34.70449 -55.87199 3009 ft 171 kts 143°
2026-04-25 23:45 -34.71469 -55.86474 3005 ft 171 kts 163°
2026-04-25 23:45 -34.72686 -55.86340 2454 ft 183 kts 189°
2026-04-25 23:45 -34.73864 -55.86935 1808 ft 187 kts 219°
2026-04-25 23:46 -34.74670 -55.88071 1705 ft 166 kts 233°
2026-04-25 23:46 -34.75332 -55.89112 1689 ft 145 kts 233°
2026-04-25 23:46 -34.75896 -55.90032 1695 ft 126 kts 234°
2026-04-25 23:46 -34.76395 -55.90853 1698 ft 122 kts 234°
2026-04-25 23:47 -34.76899 -55.91680 1711 ft 123 kts 234°
2026-04-25 23:47 -34.77397 -55.92499 1716 ft 122 kts 234°
2026-04-25 23:47 -34.77907 -55.93334 1625 ft 123 kts 233°
2026-04-25 23:47 -34.78406 -55.94121 1334 ft 116 kts 234°
2026-04-25 23:48 -34.78866 -55.94896 1128 ft 107 kts 234°
2026-04-25 23:48 -34.79318 -55.95628 984 ft 115 kts 232°
2026-04-25 23:48 -34.79823 -55.96391 902 ft 115 kts 230°
2026-04-25 23:48 -34.80308 -55.97173 763 ft 117 kts 234°
2026-04-25 23:49 -34.80779 -55.97971 686 ft 115 kts 235°
2026-04-25 23:49 -34.81215 -55.98730 561 ft 108 kts 236°
2026-04-25 23:49 -34.81633 -55.99449 475 ft 101 kts 233°
2026-04-25 23:49 -34.82048 -56.00145 338 ft 102 kts 236°
2026-04-25 23:50 -34.82473 -56.00835 209 ft 102 kts 233°
2026-04-25 23:50 -34.82886 -56.01509 84 ft 91 kts 233°
2026-04-25 23:50 -34.83164 -56.01959 76 ft 32 kts 232°
2026-04-25 23:50 -34.83331 -56.02231 76 ft 43 kts 231°
2026-04-25 23:51 -34.83496 -56.02497 70 ft 38 kts 233°
2026-04-25 23:51 -34.83659 -56.02764 76 ft 41 kts 234°
2026-04-25 23:51 -34.83825 -56.02848 74 ft 16 kts 178°
2026-04-25 23:51 -34.83889 -56.02838 76 ft 9 kts 158°
2026-04-25 23:52 -34.83918 -56.02821 73 ft 10 kts 149°
2026-04-25 23:52 -34.84025 -56.02794 76 ft 21 kts 201°
2026-04-25 23:52 -34.84181 -56.02861 73 ft 26 kts 181°
2026-04-25 23:52 -34.84306 -56.02805 76 ft 25 kts 90°
2026-04-25 23:53 -34.84322 -56.02696 75 ft 3 kts 131°
2026-04-25 23:53 -34.84357 -56.02666 76 ft 16 kts 106°
2026-04-25 23:53 -34.84469 -56.02537 76 ft 13 kts 159°
2026-04-25 23:53 -34.84516 -56.02602 72 ft 11 kts 258°
2026-04-25 23:54 -34.84533 -56.02626 72 ft 0 kts 66°